Location: *
(58.7167°N, 26.1833°E)
Time: 04:23:19
(UTC+00:00)

H-2A R/B - Pass Details

Date: 25 August 2019
Orbit: 577 x 656 km, 98.5° (Epoch: 17 September)

Event Time Altitude Azimuth Distance (km) Brightness Sun altitude
Exits shadow 23:33:23 34° 153° (SSE) 987 2.7 -19.0°
Maximum altitude 23:35:09 81° 71° (ENE) 606 2.0 -18.9°
Drops below altitude 10° 23:39:18 10° 344° (NNW) 1,919 5.3 -18.7°
Sets 23:41:27 0° 344° (NNW) 2,818 6.3 -18.6°
